Snowfall_Accumulation
0.0 0.0 0.0 0.0 0.0 0.0 0.0 0.0 0.0 0.0 0.0 0.0 0.0 0.0 0.0 0.0 0.0 0.0 0.0 0.0 0.0 0.0 0.0 0.0 0.0 0.0 0.0
0.0 0.0 0.0 0.0 0.0 0.0 0.0 0.0 0.0 0.0 0.0 0.0 0.0 0.0 0.0 0.0 0.0 0.0 0.0 0.0 0.0 0.0 0.0 0.0 0.0 0.0 0.0
0.0 0.0 0.0 0.0 0.0 0.0 0.0 0.0 0.0 0.0 0.0 0.0 0.0 0.0 0.0 0.0 0.0 0.0 0.0 0.0 0.0 0.0 0.0 0.0 0.0 0.0 0.0
0.0 0.0 0.0 0.0 0.0 0.0 0.0 0.0 0.0 0.0 0.0 0.0 0.0 0.0 0.0 0.0 0.0 0.0 0.0 0.0 0.0 0.0 0.0 0.0 0.0 0.0 0.0
0.0 0.0 0.0 0.0 0.0 0.0 0.0 0.0 0.0 0.0 0.0 0.0 0.0 0.0 0.0 0.0 0.0 0.0 0.0 0.0 0.0 0.0 0.0 0.0 0.0 0.0 0.0
0.0 0.1 0.1 0.0 0.0 0.0 0.0 0.0 0.2 0.0 0.0 0.0 0.0 0.0 0.0 0.0 0.0 0.0 0.0 0.0 0.0 0.0 0.0 0.0 0.0 0.0 0.0
0.1 0.0 0.0 0.0 0.0 0.0 0.0 0.2 0.3 0.0 0.1 0.0 0.0 0.0 0.0 0.0 0.0 0.0 0.0 0.0 0.0 0.0 0.0 0.0 0.0 0.0 0.0
0.0 0.0 0.0 0.0 0.0 0.0 0.1 0.1 0.0 0.0 0.0 0.7 0.3 0.5 0.9 0.0 0.0 0.0 0.0 0.0 0.0 0.0 0.0 0.0 0.0 0.0 0.0
0.0 0.0 0.0 0.0 0.0 0.0 0.0 0.6 0.4 0.0 0.0 1.5 0.8 1.4 1.3 2.1 0.0 0.0 0.0 0.0 0.0 0.0 0.0 0.0 0.0 0.0 0.0
0.0 0.0 0.0 0.0 0.0 0.0 0.7 1.8 1.4 1.0 0.0 2.7 1.0 2.1 1.8 1.6 1.8 0.6 0.5 0.0 0.0 0.0 0.0 0.0 0.0 0.0 0.0
0.0 0.0 0.0 0.0 0.0 0.0 0.3 1.9 2.5 1.6 0.0 4.3 1.8 1.4 2.8 1.7 1.4 1.9 2.0 0.0 0.0 0.0 0.0 0.0 0.0 0.0 0.0
0.0 0.0 0.0 0.0 0.0 0.0 0.2 0.7 0.9 1.7 0.8 2.8 3.6 3.1 3.4 2.1 1.8 2.0 3.0 2.1 1.0 0.6 0.3 0.2 0.0 0.0 0.0
0.0 0.1 0.1 0.0 0.0 0.0 0.0 0.0 0.3 0.6 1.3 2.0 3.0 2.7 3.2 2.6 1.8 1.6 2.2 2.5 1.5 0.5 0.2 0.0 0.0 0.0 0.0
0.3 0.1 0.0 0.0 0.1 0.2 0.4 0.3 0.4 0.5 0.6 1.3 1.6 2.1 1.9 1.3 1.4 0.9 1.1 1.4 1.6 0.7 0.2 0.1 0.0 0.0 0.0
0.3 0.1 0.0 0.2 0.1 0.2 0.1 0.4 0.6 0.5 0.3 0.3 0.7 1.0 1.0 0.9 0.9 0.9 0.9 1.0 0.8 0.7 0.2 0.1 0.0 0.0 0.0
0.3 0.2 0.4 0.5 0.3 0.3 0.4 0.4 0.6 0.3 0.2 0.4 0.6 0.5 0.4 0.6 0.7 1.0 1.0 1.0 1.1 0.8 0.2 0.1 0.0 0.0 0.0
0.5 0.6 0.7 0.5 0.4 0.4 0.4 0.4 0.3 0.2 0.2 0.3 0.4 0.8 0.6 0.6 0.5 0.8 0.8 0.9 0.9 1.0 0.6 0.1 0.0 0.0 0.0